This demonstration page uses our WeatherBlox Daily Observations layout. Learn more.

Left ArrowRight Arrow

39.08367, -84.50855

Hourly Observations for November 28, 2015

Temp ( °F °C ) Dew Point ( °F °C ) Humidity (%) Winds ( mph kmh ) Pressure ( in mb ) Visibility ( mi km ) Precip ( " mm )
12:53 am 00:53 Cloudy with Light Rain 54 12.2 54 12.2 100 100 Calm 30.25 1024 2 3 0.03 0.76
1:09 am 01:09 Cloudy with Mist and Fog 54 12.2 54 12.2 100 100 Calm 30.24 1024 5 8 0.00 0.03
1:53 am 01:53 Cloudy 54 12.2 54 12.2 100 100 Calm 30.23 1024 8 13 0.00 0.03
2:43 am 02:43 Cloudy with Mist and Fog 53 11.7 53 11.7 100 100 Calm 30.24 1024 2 3 0.00 0.00
2:53 am 02:53 Cloudy with Mist and Fog 54 12.2 54 12.2 100 100 Calm 30.22 1024 2 3 0.00 0.00
3:07 am 03:07 Cloudy with Mist and Fog 54 12.2 54 12.2 100 100 WSW 5 7 30.24 1024 5 8 0.00 0.00
3:53 am 03:53 Cloudy 54 12.2 54 12.2 100 100 WSW 5 7 30.22 1023 10 16 0.00 0.03
4:53 am 04:53 Cloudy 54 12.2 54 12.2 100 100 NNW 3 6 30.20 1023 9 14 0.01 0.25
5:53 am 05:53 Cloudy with Mist and Fog 54 12.2 54 12.2 100 100 Calm 30.22 1023 6 10 0.00 0.00
6:53 am 06:53 Cloudy with Mist and Fog 53 11.7 53 11.7 100 100 Calm 30.22 1023 4 6 0.00 0.03
7:44 am 07:44 Cloudy with Light Rain 52 11 52 11 100 100 N 9 15 30.24 1024 5 8 0.00 0.00
7:53 am 07:53 Cloudy with Light Rain 50 10 50 10 100 100 N 9 15 30.23 1024 2 3 0.01 0.25
8:53 am 08:53 Cloudy with Light Rain 48 8.9 48 8.9 100 100 N 6 9 30.24 1024 5 8 0.02 0.51
9:53 am 09:53 Cloudy with Light Rain 47 8.3 47 8.3 100 100 NNW 6 9 30.26 1025 4 6 0.01 0.25
10:42 am 10:42 Cloudy with Light Rain 46 8 46 8 100 100 N 8 13 30.27 1025 3 4 0.00 0.00
10:50 am 10:50 Cloudy with Light Rain 46 8 46 8 100 100 N 8 13 30.27 1025 5 8 0.00 0.00
10:53 am 10:53 Cloudy with Light Rain 47 8.3 46 7.8 97 97 N 8 13 30.26 1025 5 8 0.02 0.51
11:27 am 11:27 Cloudy with Light Rain 46 7.8 45 7.2 96 96 NNE 7 11 30.27 1025 5 8 0.01 0.25
11:53 am 11:53 Cloudy with Light Rain 46 7.8 45 7.2 96 96 NNE 7 11 30.25 1024 8 13 0.02 0.51
12:22 pm 12:22 Cloudy with Light Rain 46 8 45 7 93 93 N 8 13 30.24 1024 3 4 0.00 0.00
12:48 pm 12:48 Cloudy with Light Rain 46 8 45 7 93 93 N 8 13 30.24 1024 3 5 0.00 0.00
12:53 pm 12:53 Cloudy with Light Rain 46 7.8 45 7.2 96 96 N 6 9 30.24 1024 3 5 0.01 0.25
1:40 pm 13:40 Cloudy with Light Rain 46 8 45 7 93 93 NNE 8 13 30.21 1023 10 16 0.00 0.00
1:53 pm 13:53 Cloudy with Light Rain 46 7.8 45 7.2 96 96 NNE 7 11 30.22 1023 10 16 0.02 0.51
2:04 pm 14:04 Cloudy with Light Rain 46 8 45 7 93 93 NNE 8 13 30.21 1023 4 6 0.00 0.00
2:15 pm 14:15 Cloudy with Light Rain 46 7.8 45 7.2 96 96 NNE 7 11 30.21 1023 3 4 0.01 0.25
2:53 pm 14:53 Cloudy with Light Rain 46 7.8 45 7.2 96 96 NNE 6 9 30.21 1023 3 4 0.01 0.25
3:15 pm 15:15 Cloudy with Light Rain 46 7.8 46 7.8 100 100 ENE 6 9 30.21 1023 2 2 0.02 0.51
3:25 pm 15:25 Cloudy with Light Rain 46 7.8 46 7.8 100 100 NE 6 9 30.21 1023 2 3 0.02 0.51
3:27 pm 15:27 Cloudy with Light Rain 46 7.8 46 7.8 100 100 NE 6 9 30.21 1023 2 2 0.02 0.51
3:51 pm 15:51 Cloudy with Mist and Fog 46 8 45 7 93 93 NNE 6 9 30.21 1023 3 4 0.00 0.00
3:53 pm 15:53 Cloudy with Mist and Fog 46 7.8 45 7.2 96 96 NNE 5 7 30.21 1023 3 4 0.02 0.51
4:10 pm 16:10 Cloudy with Light Rain 46 8 45 7 93 93 NNE 6 9 30.21 1023 2 2 0.00 0.00
4:11 pm 16:11 Cloudy with Light Rain 46 8 46 8 100 100 NE 6 9 30.21 1023 2 2 0.00 0.00
4:53 pm 16:53 Cloudy with Rain 46 7.8 46 7.8 100 100 NNE 6 9 30.23 1024 2 3 0.03 0.76
5:27 pm 17:27 Cloudy with Light Rain 45 7.2 45 7.2 100 100 NNE 9 15 30.24 1024 4 6 0.04 1.02
5:53 pm 17:53 Cloudy with Light Rain 45 7.2 44 6.7 97 97 NNE 10 17 30.23 1024 6 10 0.05 1.27
6:53 pm 18:53 Cloudy with Light Rain 44 6.7 43 6.1 96 96 NNE 10 17 30.24 1024 7 11 0.03 0.76
7:53 pm 19:53 Cloudy with Rain 43 6.1 43 6.1 100 100 NNE 7 11 30.25 1025 4 6 0.05 1.27
8:53 pm 20:53 Cloudy with Light Rain 43 6.1 42 5.6 97 97 NE 6 9 30.26 1025 4 6 0.06 1.52
9:53 pm 21:53 Cloudy with Rain 43 6.1 43 6.1 100 100 NNE 5 7 30.25 1025 3 5 0.04 1.02
10:26 pm 22:26 Cloudy with Light Rain 43 6 43 6 100 100 NNE 5 7 30.24 1024 6 10 0.00 0.00
10:38 pm 22:38 Cloudy with Light Rain 43 6.1 42 5.6 97 97 NNE 6 9 30.24 1024 8 13 0.04 1.02
10:53 pm 22:53 Cloudy with Light Rain 43 6.1 43 6.1 100 100 NE 6 9 30.24 1024 10 16 0.05 1.27
11:53 pm 23:53 Cloudy with Light Rain 43 6.1 41 5 93 93 NNE 10 17 30.25 1024 10 16 0.00 0.03

Powered by AerisWeather